This is the latest recevied weather packets stored in our database for station/object WX4ET. If no packets are shown the sender has not sent any weather packets the latest 10 day(s).
| Time | Temp. | Humidity | Pressure | Rain* | Wind** | Luminosity | Snow |
|---|---|---|---|---|---|---|---|
| 1777850307 | 17.78° C | 42% | 1011.2 hPa | 0 mm | - | 43 W/m² | - |
| 1777850004 | 18.33° C | 41% | 1011.3 hPa | 0 mm | - | 70 W/m² | - |
| 1777849700 | 18.33° C | 41% | 1011.3 hPa | 0 mm | - | 83 W/m² | - |
| 1777849397 | 18.33° C | 40% | 1011.2 hPa | 0 mm | - | 93 W/m² | - |
| 1777849095 | 18.89° C | 40% | 1011.2 hPa | 0 mm | - | 107 W/m² | - |
| 1777848790 | 18.33° C | 43% | 1011.5 hPa | 0 mm | - | 122 W/m² | - |
| 1777848487 | 18.33° C | 38% | 1011.5 hPa | 0 mm | - | 133 W/m² | - |
| 1777848185 | 18.33° C | 39% | 1011.6 hPa | 0 mm | - | 153 W/m² | - |
| 1777847882 | 18.89° C | 38% | 1011.5 hPa | 0 mm | - | 169 W/m² | - |
| 1777847580 | 18.89° C | 38% | 1011.2 hPa | 0 mm | - | 177 W/m² | - |
| 1777847275 | 18.89° C | 39% | 1011.5 hPa | 0 mm | - | 196 W/m² | - |
| 1777846974 | 18.89° C | 37% | 1011.4 hPa | 0 mm | - | 202 W/m² | - |
| 1777846672 | 18.89° C | 37% | 1011.6 hPa | 0 mm | - | 224 W/m² | - |
| 1777846369 | 18.89° C | 37% | 1011.7 hPa | 0 mm | - | 245 W/m² | - |
| 1777846066 | 18.89° C | 37% | 1011.8 hPa | 0 mm | - | 265 W/m² | - |
| 1777845763 | 18.89° C | 38% | 1011.6 hPa | 0 mm | - | 278 W/m² | - |
| 1777845459 | 18.89° C | 38% | 1011.8 hPa | 0 mm | - | 283 W/m² | - |
| 1777845157 | 18.33° C | 39% | 1011.6 hPa | 0 mm | - | 302 W/m² | - |
| 1777844855 | 18.89° C | 37% | 1011.8 hPa | 0 mm | - | 326 W/m² | - |
| 1777844551 | 18.89° C | 40% | 1011.8 hPa | 0 mm | - | 338 W/m² | - |
| 1777844249 | 18.89° C | 37% | 1011.8 hPa | 0 mm | - | 341 W/m² | - |
| 1777843946 | 18.89° C | 37% | 1012.1 hPa | 0 mm | - | 347 W/m² | - |
| 1777843643 | 18.89° C | 37% | 1012.1 hPa | 0 mm | - | 335 W/m² | - |
| 1777843341 | 18.33° C | 37% | 1012 hPa | 0 mm | - | 372 W/m² | - |
| 1777843038 | 18.89° C | 36% | 1012 hPa | 0 mm | - | 398 W/m² | - |
* Rain latest hour (hover to see other rain measurements)
** Current wind speed in m/s (hover to see current wind gust speed)